Startpagina
METAR-TAF:

METAR-TAF

Vliegvelden :

Deer Park Airport

Deer Park, Washington, Verenigde Staten

breedte: 47-58-27N, lengte: 117-25-42W, hoogte: 672 m

Actueel weer

Dit bericht is 1 uur en het 0 minuten geleden gemaakt, om 08:53 UTC
Wind 6 kt uit het noordnoordoosten
Temperatuur -3°C
Vochtigheid 74%
Druk 1014 hPa
Zicht: 16.1 km
Gebroken wolken op 6500 ft

METAR: KDEW 160853Z AUTO 02006KT 10SM BKN065 M03/M07 A2995 RMK AO2 SLP166 T10331072 58002

Tijdstip: 01:53 (09:53 UTC)


TAF: ontbreekt

Waarnemingen en weersverwachtingen van meer dan 4000 vliegvelden (METAR en TAF).

De beschikbare stations zijn de gele en rode punten op de kaart.

Ga met uw muis naar het station om de naam te zien.

Klik dan om waarnemingen en weersverwachtingen te zien.

kaart wijzigen: klik op de groene knoppen met een zwart kruis om in te zoomen, op de groene knop met een streepje om uit te zoomen of op de groene pijlen voor aangrenzende kaarten.


METAR-TAF: